CCGS Sir Wilfrid Laurier — CGJK — position and weather

sailwx.info

Track history (hours):
 
Tides and Currents Weather Stations Pressure Air Temp Water Temp Dewpoint Dewpoint Depression Visibility Wind Speed Wind Dir Waves Ship Positions

Oceanographic research ship CCGS Sir Wilfrid Laurier (Canada)

Detailed information on ship capabilities available from ARCUS's ALIAS (Arctic Logistics Information and Support) project.

Last reported at 2015-Mar-04 14:33 UTC. Time now 2015-Mar-04 15:12 UTC.
Position N 48°25' W 123°23'.

Length 83 m; beam 16.2 m; draft 6 m.

Type: SAR. MMSI: 316052000.

Date/timePositionNaut miles runAvg speedWind from/ knotsBaromVisibWave heightAir tempDewpointWater temp
2015-Mar-04 14:33N 48°25' W 123°23'0 0.0
2015-Mar-04 13:33N 48°25' W 123°23'0 0.0
2015-Mar-04 12:33N 48°25' W 123°23'0 0.0
2015-Mar-04 11:33N 48°25' W 123°23'0 0.0
2015-Mar-04 10:33N 48°25' W 123°23'0 0.0
2015-Mar-04 09:33N 48°25' W 123°23'0 0.0
2015-Mar-04 08:33N 48°25' W 123°23'0 0.0
2015-Mar-04 07:30N 48°25' W 123°23'0 0.0
2015-Mar-04 06:33N 48°25' W 123°23'0 0.0
2015-Mar-04 05:33N 48°25' W 123°23'0 0.0
2015-Mar-04 04:33N 48°25' W 123°23'0 0.0
2015-Mar-04 03:33N 48°25' W 123°23'0 0.0
2015-Mar-04 02:33N 48°25' W 123°23'0 0.0
2015-Mar-04 01:33N 48°25' W 123°23'0 0.0
2015-Mar-04 00:33N 48°25' W 123°23'0 0.0
2015-Mar-03 23:33N 48°25' W 123°23'0 0.0
2015-Mar-03 22:33N 48°25' W 123°23'0 0.0
2015-Mar-03 21:33N 48°25' W 123°23'0 0.0
2015-Mar-03 20:30N 48°25' W 123°23'0 0.0
2015-Mar-03 19:33N 48°25' W 123°23'0 0.0
2015-Mar-03 18:33N 48°25' W 123°23'0 0.0
2015-Mar-03 17:33N 48°25' W 123°23'0 0.0
2015-Mar-03 16:33N 48°25' W 123°23'0 0.0
2015-Mar-03 15:33N 48°25' W 123°23'0 0.0
2015-Mar-03 14:30N 48°25' W 123°23'0 0.0
2015-Mar-03 13:33N 48°25' W 123°23'0 0.0
2015-Mar-03 12:33N 48°25' W 123°23'0 0.0
2015-Mar-03 11:30N 48°25' W 123°23'0 0.0
2015-Mar-03 10:33N 48°25' W 123°23'0 0.0
2015-Mar-03 09:33N 48°25' W 123°23'0 0.0
2015-Mar-03 08:33N 48°25' W 123°23'0 0.0
2015-Mar-03 07:33N 48°25' W 123°23'0 0.0
2015-Mar-03 06:33N 48°25' W 123°23'0 0.0
2015-Mar-03 05:33N 48°25' W 123°23'0 0.0
2015-Mar-03 04:33N 48°25' W 123°23'0 0.0
2015-Mar-03 03:30N 48°25' W 123°23'0 0.0
2015-Mar-03 02:33N 48°25' W 123°23'0 0.0
2015-Mar-03 01:33N 48°25' W 123°23'0 0.0
2015-Mar-03 00:30N 48°25' W 123°23'0 0.0
2015-Mar-02 23:33N 48°25' W 123°23'0 0.0
2015-Mar-02 22:33N 48°25' W 123°23'0 0.0
2015-Mar-02 21:33N 48°25' W 123°23'0 0.0
2015-Mar-02 20:33N 48°25' W 123°23'0 0.0
2015-Mar-02 19:33N 48°25' W 123°23'0 0.0
2015-Mar-02 18:33N 48°25' W 123°23'0 0.0
2015-Mar-02 17:33N 48°25' W 123°23'0 0.0
2015-Mar-02 16:33N 48°25' W 123°23'3 2.8
2015-Mar-02 15:33N 48°23' W 123°21'9 9.5
2015-Mar-02 14:34N 48°31' W 123°13'1211.7
2015-Mar-02 13:33N 48°43' W 123°14'1110.9
2015-Mar-02 12:33N 48°49' W 123°00'1212.4
2015-Mar-02 11:34N 48°57' W 123°14'1110.8
2015-Mar-02 10:34N 49°04' W 123°26'7 6.6
2015-Mar-02 09:33N 49°08' W 123°34'7 7.2
2015-Mar-02 08:33N 49°12' W 123°43'6 6.0
2015-Mar-02 07:33N 49°15' W 123°51'6 5.5
2015-Mar-02 06:32N 49°18' W 123°59'5 5.3
2015-Mar-02 05:32N 49°21' W 124°06'7 7.6
2015-Mar-02 04:34N 49°23' W 124°17'1211.5
2015-Mar-02 03:33N 49°27' W 124°34'5 4.7
2015-Mar-02 02:32N 49°28' W 124°41'0 0.0
2015-Mar-02 01:32N 49°28' W 124°41'0 0.0
2015-Mar-02 00:32N 49°28' W 124°41'0 0.0
2015-Mar-01 23:32N 49°28' W 124°41'0 0.0
2015-Mar-01 22:32N 49°28' W 124°41'1 0.4
2015-Mar-01 20:29N 49°29' W 124°41'2110.7
2015-Mar-01 18:32N 49°50' W 124°45'6 2.5
2015-Mar-01 16:11N 49°55' W 124°40'3 3.1
2015-Mar-01 15:22N 49°53' W 124°37'8 8.0
2015-Mar-01 14:24N 49°47' W 124°31'7 8.2
2015-Mar-01 13:33N 49°44' W 124°21'8 8.2
2015-Mar-01 12:32N 49°37' W 124°13'8 8.1
2015-Mar-01 11:31N 49°31' W 124°05'8 8.1
2015-Mar-01 10:33N 49°25' W 123°56'8 8.5
2015-Mar-01 09:33N 49°20' W 123°47'10 9.7
2015-Mar-01 08:34N 49°13' W 123°36'1211.6
2015-Mar-01 07:34N 49°05' W 123°23'1211.6
2015-Mar-01 06:34N 48°57' W 123°10'1111.1
2015-Mar-01 05:33N 48°49' W 122°59'1312.9
2015-Mar-01 04:34N 48°41' W 123°15'1212.4
2015-Mar-01 03:33N 48°29' W 123°10'1010.4
2015-Mar-01 02:34N 48°22' W 123°21'3 3.3
2015-Mar-01 01:33N 48°25' W 123°23'0 0.0
2015-Mar-01 00:27N 48°25' W 123°23'0 0.0
2015-Feb-28 23:33N 48°25' W 123°23'2 2.5
2015-Feb-28 22:34N 48°23' W 123°25'1110.5
2015-Feb-28 21:33N 48°18' W 123°39'1313.1
2015-Feb-28 20:33N 48°22' W 123°58'1313.1
2015-Feb-28 19:33N 48°27' W 124°16'1413.6
2015-Feb-28 18:33N 48°32' W 124°35'8 8.0
2015-Feb-28 17:33N 48°36' W 124°45'0 0.0
2015-Feb-28 16:33N 48°36' W 124°45'0 0.0
2015-Feb-28 15:33N 48°36' W 124°45'3 2.9
2015-Feb-28 14:33N 48°35' W 124°49'7 7.1
2015-Feb-28 13:33N 48°37' W 124°59'7 7.0
2015-Feb-28 12:33N 48°39' W 125°10'7 7.1
2015-Feb-28 11:34N 48°42' W 125°20'7 7.0
2015-Feb-28 10:33N 48°46' W 125°28'7 7.1
2015-Feb-28 09:33N 48°50' W 125°37'7 6.6
2015-Feb-28 08:33N 48°54' W 125°45'7 6.9
2015-Feb-28 07:33N 48°58' W 125°54'8 7.8
2015-Feb-28 06:33N 49°02' W 126°03'8 7.7
2015-Feb-28 05:33N 49°07' W 126°13'7 7.3
2015-Feb-28 04:32N 49°11' W 126°23'6 6.3
2015-Feb-28 03:33N 49°14' W 126°30'6 6.2
2015-Feb-28 02:33N 49°18' W 126°38'6 6.1
2015-Feb-28 01:33N 49°22' W 126°45'6 6.1
2015-Feb-28 00:33N 49°27' W 126°50'6 5.8
2015-Feb-27 23:33N 49°32' W 126°56'7 7.1
2015-Feb-27 22:33N 49°36' W 127°05'14 7.0
2015-Feb-27 20:28N 49°45' W 127°23'  
Track history (hours):
 
Tides and Currents Weather Stations Pressure Air Temp Water Temp Dewpoint Dewpoint Depression Visibility Wind Speed Wind Dir Waves Ship Positions

Oceanographic research ship CCGS Sir Wilfrid Laurier (Canada)

Detailed information on ship capabilities available from ARCUS's ALIAS (Arctic Logistics Information and Support) project.

Last reported at 2015-Mar-04 14:33 UTC. Time now 2015-Mar-04 15:12 UTC.
Position N 48°25' W 123°23'.

Length 83 m; beam 16.2 m; draft 6 m.

Type: SAR. MMSI: 316052000.

Date/timePositionNaut miles runAvg speedWind from/ knotsBaromVisibWave heightAir tempDewpointWater temp
2015-Mar-04 14:33N 48°25' W 123°23'0 0.0
2015-Mar-04 13:33N 48°25' W 123°23'0 0.0
2015-Mar-04 12:33N 48°25' W 123°23'0 0.0
2015-Mar-04 11:33N 48°25' W 123°23'0 0.0
2015-Mar-04 10:33N 48°25' W 123°23'0 0.0
2015-Mar-04 09:33N 48°25' W 123°23'0 0.0
2015-Mar-04 08:33N 48°25' W 123°23'0 0.0
2015-Mar-04 07:30N 48°25' W 123°23'0 0.0
2015-Mar-04 06:33N 48°25' W 123°23'0 0.0
2015-Mar-04 05:33N 48°25' W 123°23'0 0.0
2015-Mar-04 04:33N 48°25' W 123°23'0 0.0
2015-Mar-04 03:33N 48°25' W 123°23'0 0.0
2015-Mar-04 02:33N 48°25' W 123°23'0 0.0
2015-Mar-04 01:33N 48°25' W 123°23'0 0.0
2015-Mar-04 00:33N 48°25' W 123°23'0 0.0
2015-Mar-03 23:33N 48°25' W 123°23'0 0.0
2015-Mar-03 22:33N 48°25' W 123°23'0 0.0
2015-Mar-03 21:33N 48°25' W 123°23'0 0.0
2015-Mar-03 20:30N 48°25' W 123°23'0 0.0
2015-Mar-03 19:33N 48°25' W 123°23'0 0.0
2015-Mar-03 18:33N 48°25' W 123°23'0 0.0
2015-Mar-03 17:33N 48°25' W 123°23'0 0.0
2015-Mar-03 16:33N 48°25' W 123°23'0 0.0
2015-Mar-03 15:33N 48°25' W 123°23'0 0.0
2015-Mar-03 14:30N 48°25' W 123°23'0 0.0
2015-Mar-03 13:33N 48°25' W 123°23'0 0.0
2015-Mar-03 12:33N 48°25' W 123°23'0 0.0
2015-Mar-03 11:30N 48°25' W 123°23'0 0.0
2015-Mar-03 10:33N 48°25' W 123°23'0 0.0
2015-Mar-03 09:33N 48°25' W 123°23'0 0.0
2015-Mar-03 08:33N 48°25' W 123°23'0 0.0
2015-Mar-03 07:33N 48°25' W 123°23'0 0.0
2015-Mar-03 06:33N 48°25' W 123°23'0 0.0
2015-Mar-03 05:33N 48°25' W 123°23'0 0.0
2015-Mar-03 04:33N 48°25' W 123°23'0 0.0
2015-Mar-03 03:30N 48°25' W 123°23'0 0.0
2015-Mar-03 02:33N 48°25' W 123°23'0 0.0
2015-Mar-03 01:33N 48°25' W 123°23'0 0.0
2015-Mar-03 00:30N 48°25' W 123°23'0 0.0
2015-Mar-02 23:33N 48°25' W 123°23'0 0.0
2015-Mar-02 22:33N 48°25' W 123°23'0 0.0
2015-Mar-02 21:33N 48°25' W 123°23'0 0.0
2015-Mar-02 20:33N 48°25' W 123°23'0 0.0
2015-Mar-02 19:33N 48°25' W 123°23'0 0.0
2015-Mar-02 18:33N 48°25' W 123°23'0 0.0
2015-Mar-02 17:33N 48°25' W 123°23'0 0.0
2015-Mar-02 16:33N 48°25' W 123°23'3 2.8
2015-Mar-02 15:33N 48°23' W 123°21'9 9.5
2015-Mar-02 14:34N 48°31' W 123°13'1211.7
2015-Mar-02 13:33N 48°43' W 123°14'1110.9
2015-Mar-02 12:33N 48°49' W 123°00'1212.4
2015-Mar-02 11:34N 48°57' W 123°14'1110.8
2015-Mar-02 10:34N 49°04' W 123°26'7 6.6
2015-Mar-02 09:33N 49°08' W 123°34'7 7.2
2015-Mar-02 08:33N 49°12' W 123°43'6 6.0
2015-Mar-02 07:33N 49°15' W 123°51'6 5.5
2015-Mar-02 06:32N 49°18' W 123°59'5 5.3
2015-Mar-02 05:32N 49°21' W 124°06'7 7.6
2015-Mar-02 04:34N 49°23' W 124°17'1211.5
2015-Mar-02 03:33N 49°27' W 124°34'5 4.7
2015-Mar-02 02:32N 49°28' W 124°41'0 0.0
2015-Mar-02 01:32N 49°28' W 124°41'0 0.0
2015-Mar-02 00:32N 49°28' W 124°41'0 0.0
2015-Mar-01 23:32N 49°28' W 124°41'0 0.0
2015-Mar-01 22:32N 49°28' W 124°41'1 0.4
2015-Mar-01 20:29N 49°29' W 124°41'2110.7
2015-Mar-01 18:32N 49°50' W 124°45'6 2.5
2015-Mar-01 16:11N 49°55' W 124°40'3 3.1
2015-Mar-01 15:22N 49°53' W 124°37'8 8.0
2015-Mar-01 14:24N 49°47' W 124°31'7 8.2
2015-Mar-01 13:33N 49°44' W 124°21'8 8.2
2015-Mar-01 12:32N 49°37' W 124°13'8 8.1
2015-Mar-01 11:31N 49°31' W 124°05'8 8.1
2015-Mar-01 10:33N 49°25' W 123°56'8 8.5
2015-Mar-01 09:33N 49°20' W 123°47'10 9.7
2015-Mar-01 08:34N 49°13' W 123°36'1211.6
2015-Mar-01 07:34N 49°05' W 123°23'1211.6
2015-Mar-01 06:34N 48°57' W 123°10'1111.1
2015-Mar-01 05:33N 48°49' W 122°59'1312.9
2015-Mar-01 04:34N 48°41' W 123°15'1212.4
2015-Mar-01 03:33N 48°29' W 123°10'1010.4
2015-Mar-01 02:34N 48°22' W 123°21'3 3.3
2015-Mar-01 01:33N 48°25' W 123°23'0 0.0
2015-Mar-01 00:27N 48°25' W 123°23'0 0.0
2015-Feb-28 23:33N 48°25' W 123°23'2 2.5
2015-Feb-28 22:34N 48°23' W 123°25'1110.5
2015-Feb-28 21:33N 48°18' W 123°39'1313.1
2015-Feb-28 20:33N 48°22' W 123°58'1313.1
2015-Feb-28 19:33N 48°27' W 124°16'1413.6
2015-Feb-28 18:33N 48°32' W 124°35'8 8.0
2015-Feb-28 17:33N 48°36' W 124°45'0 0.0
2015-Feb-28 16:33N 48°36' W 124°45'0 0.0
2015-Feb-28 15:33N 48°36' W 124°45'3 2.9
2015-Feb-28 14:33N 48°35' W 124°49'7 7.1
2015-Feb-28 13:33N 48°37' W 124°59'7 7.0
2015-Feb-28 12:33N 48°39' W 125°10'7 7.1
2015-Feb-28 11:34N 48°42' W 125°20'7 7.0
2015-Feb-28 10:33N 48°46' W 125°28'7 7.1
2015-Feb-28 09:33N 48°50' W 125°37'7 6.6
2015-Feb-28 08:33N 48°54' W 125°45'7 6.9
2015-Feb-28 07:33N 48°58' W 125°54'8 7.8
2015-Feb-28 06:33N 49°02' W 126°03'8 7.7
2015-Feb-28 05:33N 49°07' W 126°13'7 7.3
2015-Feb-28 04:32N 49°11' W 126°23'6 6.3
2015-Feb-28 03:33N 49°14' W 126°30'6 6.2
2015-Feb-28 02:33N 49°18' W 126°38'6 6.1
2015-Feb-28 01:33N 49°22' W 126°45'6 6.1
2015-Feb-28 00:33N 49°27' W 126°50'6 5.8
2015-Feb-27 23:33N 49°32' W 126°56'7 7.1
2015-Feb-27 22:33N 49°36' W 127°05'14 7.0
2015-Feb-27 20:28N 49°45' W 127°23'  

Dump ship's entire track history